Location: Newark
(40.7066°N, 111.8219°W)
Time: 11:04:24
(UTC+00:00)

Altair - Visible Passes

Search period start: 19 November 2019 00:00
Search period end: 29 November 2019 00:00
Orbit: 1502 x 1682 km, 47.2° (Epoch: 17 November)

Date Brightness Start Highest point End Pass type
(mag) Time Alt. Az. Time Alt. Az. Time Alt. Az.
19 Nov 8.4 10:02:32 38° ENE 10:02:32 38° ENE 10:07:49 10° ENE visible
19 Nov 7.4 12:00:34 45° WNW 12:03:34 65° NNW 12:12:49 10° ENE visible
20 Nov 8.9 09:38:54 27° ENE 09:38:54 27° ENE 09:42:37 10° ENE visible
20 Nov 7.3 11:36:55 60° WNW 11:38:21 67° NNW 11:47:36 10° ENE visible
20 Nov 7.7 13:34:58 10° WNW 13:44:04 60° N 13:53:23 10° E visible
21 Nov 9.3 09:15:14 19° ENE 09:15:14 19° ENE 09:17:25 10° ENE visible
21 Nov 7.3 11:13:15 69° NNW 11:13:15 69° NNW 11:22:24 10° ENE visible
21 Nov 7.7 13:11:17 16° WNW 13:18:49 60° N 13:28:05 10° E visible
22 Nov 9.6 08:51:32 13° ENE 08:51:32 13° ENE 08:52:13 10° ENE visible
22 Nov 7.6 10:49:34 61° NE 10:49:34 61° NE 10:57:11 10° ENE visible
22 Nov 7.7 12:47:35 23° WNW 12:53:35 59° N 13:02:48 10° E visible
23 Nov 8.1 10:25:51 47° NE 10:25:51 47° NE 10:32:00 10° ENE visible
23 Nov 7.6 12:23:52 32° WNW 12:28:21 58° N 12:37:32 10° E visible
24 Nov 8.5 10:02:07 35° ENE 10:02:07 35° ENE 10:06:48 10° ENE visible
24 Nov 7.6 12:00:08 42° NW 12:03:07 58° N 12:12:16 10° E visible
25 Nov 9.0 09:38:22 25° ENE 09:38:22 25° ENE 09:41:38 10° ENE visible
25 Nov 7.5 11:36:24 53° NW 11:37:52 58° N 11:47:00 10° ENE visible
25 Nov 7.6 13:34:25 11° WNW 13:43:24 79° NNE 13:52:51 10° ESE visible
26 Nov 9.3 09:14:38 18° ENE 09:14:38 18° ENE 09:16:27 10° ENE visible
26 Nov 7.6 11:12:39 58° N 11:12:39 58° N 11:21:44 10° ENE visible
26 Nov 7.5 13:10:41 17° WNW 13:18:13 76° NNE 13:27:37 10° ESE visible
27 Nov 9.7 08:50:53 12° ENE 08:50:53 12° ENE 08:51:16 10° ENE visible
27 Nov 7.8 10:48:55 53° NNE 10:48:55 53° NNE 10:56:30 10° ENE visible
27 Nov 7.5 12:46:56 24° WNW 12:53:01 73° NNE 13:02:23 10° ESE visible
28 Nov 8.2 10:25:11 43° NE 10:25:11 43° NE 10:31:15 10° ENE visible
28 Nov 7.5 12:23:12 34° WNW 12:27:49 71° NNE 12:37:08 10° ESE visible
